Date,TemperatureHighF,TemperatureAvgF,TemperatureLowF,DewpointHighF,DewpointAvgF,DewpointLowF,HumidityHigh,HumidityAvg,HumidityLow,PressureMaxIn,PressureMinIn,WindSpeedMaxMPH,WindSpeedAvgMPH,GustSpeedMaxMPH,PrecipitationSumIn
2013-1-1,35,16,15,28,-21,-100,80,49,65,30.05,29.84,18,-314,0,0.00
2013-1-2,25,19,11,22,14,6,92,81,71,30.26,30.00,27,5,0,0.00
2013-1-3,30,20,9,25,16,5,87,82,75,30.26,30.00,15,3,0,0.00
2013-1-4,36,32,28,26,24,21,81,71,58,30.01,29.89,23,8,0,0.01
2013-1-5,33,9,32,25,-66,-100,74,20,73,30.30,30.01,16,-726,0,0.00
2013-1-6,40,25,34,33,-12,-100,87,53,69,30.09,29.89,10,-323,0,0.00
2013-1-7,36,26,21,33,13,-100,88,75,68,30.41,30.06,13,-79,0,0.00
2013-1-8,40,30,25,25,22,20,84,71,55,30.34,30.20,12,4,0,0.00
2013-1-9,50,37,24,37,28,21,88,72,57,30.32,29.96,22,9,0,0.00
2013-1-10,42,34,32,31,16,-100,83,64,60,30.59,30.30,22,-90,0,0.00
2013-1-11,42,38,32,37,32,28,88,79,65,30.46,29.95,24,12,0,0.09
2013-1-12,52,46,41,47,42,37,93,89,84,30.03,29.98,15,8,0,0.00
2013-1-13,59,48,46,52,35,-100,93,78,78,29.99,29.78,23,-85,0,0.00
2013-1-14,53,29,31,49,-1,-100,89,56,63,30.38,29.75,29,-238,0,0.03
2013-1-15,35,31,29,24,22,20,78,69,56,30.41,30.21,11,3,0,0.00
2013-1-16,36,26,30,30,1,-100,90,63,60,30.20,29.78,11,-197,0,0.00
2013-1-17,36,27,19,30,18,-100,84,72,60,30.20,29.85,21,-4,0,0.00
2013-1-18,30,22,14,16,12,7,88,69,48,30.43,30.08,20,6,0,0.00
2013-1-19,50,42,30,30,25,17,59,51,38,30.07,29.62,14,6,0,0.00
2013-1-20,49,27,20,36,-1,-100,74,47,41,30.07,29.43,37,-146,0,0.04
2013-1-21,23,20,17,14,10,7,76,65,56,30.07,29.87,11,3,0,0.00
2013-1-22,16,12,9,7,-1,-6,73,56,39,30.19,29.90,21,8,0,0.00
2013-1-23,12,7,-1,10,1,-5,92,76,60,30.26,30.16,12,3,0,0.00
2013-1-24,14,6,-4,10,1,-8,85,80,70,30.53,30.14,15,4,0,0.01
2013-1-25,18,12,8,11,8,4,86,82,72,30.52,30.12,9,2,0,0.00
2013-1-26,22,13,2,17,8,-2,92,83,66,30.41,30.12,7,1,0,0.00
2013-1-27,27,20,14,17,15,11,90,79,61,30.58,30.41,9,2,0,0.04
2013-1-28,38,32,20,37,28,15,95,87,71,30.41,29.87,16,6,0,0.14
2013-1-29,51,40,32,49,39,31,100,95,91,30.07,29.80,16,6,0,0.24
2013-1-30,62,56,51,55,51,47,92,83,75,29.78,29.08,24,14,0,0.02
2013-1-31,55,33,23,52,24,12,91,69,49,29.69,29.00,31,13,0,0.29
2013-2-1,23,21,19,18,13,8,87,73,56,30.20,29.70,19,9,0,0.00
2013-2-2,22,19,15,17,11,6,85,74,60,30.20,30.00,13,4,0,0.00
2013-2-3,28,19,9,18,12,6,90,77,48,30.00,29.80,11,3,0,0.00
2013-2-4,24,21,18,15,11,8,84,67,52,29.95,29.86,27,6,0,0.00
2013-2-5,27,22,14,19,15,9,87,75,65,30.00,29.86,10,3,13,0.00
2013-2-6,28,24,14,25,16,8,89,72,51,30.41,29.89,20,6,0,0.00
2013-2-7,32,23,13,22,14,9,87,69,53,30.48,30.14,16,5,0,0.00
2013-2-8,36,30,21,31,26,18,94,83,58,30.13,29.80,23,5,0,0.00
2013-2-9,21,19,14,19,16,12,92,91,90,30.44,30.04,8,1,0,0.00
2013-2-10,36,21,2,24,14,-1,91,76,54,30.46,30.04,19,5,0,0.09
2013-2-11,45,34,36,38,15,-100,82,62,56,30.03,29.57,26,-103,0,0.10
2013-2-12,36,34,32,30,27,24,89,75,64,29.96,29.70,25,8,0,0.00
2013-2-13,38,32,22,26,24,18,85,72,56,29.92,29.73,9,2,0,0.00
2013-2-14,40,31,25,34,18,-100,92,75,63,29.94,29.80,16,-68,0,0.10
2013-2-15,39,33,27,34,16,-100,91,63,52,30.05,29.79,18,-68,0,0.02
2013-2-16,28,24,20,20,16,12,81,72,61,30.06,29.94,12,3,0,0.00
2013-2-17,22,16,13,14,10,4,88,77,59,30.17,29.90,29,8,0,0.00
2013-2-18,30,21,12,18,13,9,88,73,57,30.32,29.99,16,5,0,0.02
2013-2-19,38,29,27,34,9,-100,90,63,57,29.98,29.57,20,-118,0,0.04
2013-2-20,27,24,21,21,15,12,87,70,59,30.04,29.75,29,11,0,0.00
2013-2-21,21,18,14,17,14,11,89,82,74,30.44,30.02,19,8,0,0.00
2013-2-22,36,27,17,28,21,14,90,79,65,30.42,30.06,21,7,0,0.00
2013-2-23,40,36,33,34,30,26,90,81,75,30.06,29.87,22,7,0,0.04
2013-2-24,33,24,31,28,-5,-100,88,59,71,30.04,29.85,15,-238,0,0.00
2013-2-25,40,34,29,30,27,24,88,76,55,30.25,30.04,15,5,0,0.00
2013-2-26,43,34,24,32,27,22,92,76,55,30.25,29.90,15,6,0,0.02
2013-2-27,38,34,33,36,32,31,94,92,90,29.88,29.56,15,3,0,0.89
2013-2-28,40,36,34,34,32,31,99,88,73,29.70,29.54,11,4,0,0.10
2013-3-1,34,31,27,32,28,22,94,88,79,29.91,29.70,14,7,0,0.02
2013-3-2,28,25,24,25,22,20,92,88,81,29.94,29.86,13,6,0,0.00
2013-3-3,25,24,22,22,19,17,90,84,71,29.89,29.85,14,6,0,0.00
2013-3-4,30,26,23,23,20,17,87,76,67,30.03,29.89,19,10,0,0.00
2013-3-5,31,26,23,24,15,-100,88,75,75,30.10,29.99,13,-59,2,0.02
2013-3-6,41,33,21,32,28,18,91,80,66,30.14,29.98,11,4,0,0.00
2013-3-7,38,31,32,32,16,-100,87,69,67,30.27,30.13,15,-94,0,0.00
2013-3-8,40,33,26,28,24,21,91,72,51,30.39,30.24,20,6,0,0.02
2013-3-9,49,36,25,33,27,21,95,70,44,30.42,30.25,10,3,0,0.00
2013-3-10,59,47,33,32,29,26,83,52,33,30.25,30.01,25,11,0,0.00
2013-3-11,55,51,48,45,32,27,73,49,42,30.02,29.71,32,15,0,0.00
2013-3-12,54,43,36,48,36,28,91,78,70,29.90,29.70,19,7,11,0.34
2013-3-13,39,34,25,31,25,17,89,71,51,29.93,29.82,16,6,0,0.01
2013-3-14,32,26,20,20,13,7,87,59,36,30.05,29.92,36,14,0,0.00
2013-3-15,38,32,25,32,23,14,90,71,56,30.04,29.71,19,7,0,0.01
2013-3-16,31,26,20,20,17,14,81,70,61,29.99,29.86,13,4,0,0.00
2013-3-17,29,25,19,21,16,11,89,71,51,30.36,29.98,20,4,0,0.00
2013-3-18,35,26,17,28,18,11,93,76,43,30.37,29.82,22,8,0,0.00
2013-3-19,38,33,27,35,28,19,93,82,59,29.84,29.69,26,8,0,0.16
2013-3-20,36,29,24,23,20,16,81,69,44,29.84,29.79,19,7,0,0.00
2013-3-21,32,27,21,25,18,13,90,71,48,29.83,29.72,13,4,0,0.00
2013-3-22,32,29,25,27,25,23,91,84,73,29.90,29.72,20,8,0,0.03
2013-3-23,37,33,30,27,25,22,89,73,57,30.00,29.89,21,8,0,0.01
2013-3-24,38,33,27,29,24,21,87,70,53,29.99,29.75,11,4,0,0.00
2013-3-25,41,35,31,30,26,24,80,70,57,29.75,29.61,14,4,0,0.00
2013-3-26,45,38,31,34,29,25,92,72,51,29.92,29.70,12,3,0,0.00
2013-3-27,46,37,33,36,29,-100,91,73,55,30.04,29.89,16,7,19,0.04
2013-3-28,46,39,34,35,32,27,91,76,53,30.19,30.02,16,6,0,0.00
2013-3-29,49,41,37,34,32,27,83,70,48,30.19,30.11,16,5,0,0.00
2013-3-30,53,42,32,30,27,23,78,58,37,30.19,30.06,13,4,0,0.00
2013-3-31,55,43,36,42,34,24,93,72,42,30.06,29.63,21,9,0,0.11
2013-4-1,44,37,28,41,28,15,93,72,41,29.94,29.56,27,8,0,0.06
2013-4-2,32,29,24,26,21,17,88,74,57,30.10,29.93,20,8,0,0.01
2013-4-3,36,32,28,22,18,13,70,57,41,30.37,30.09,22,9,0,0.00
2013-4-4,58,39,25,26,21,17,75,52,23,30.36,29.93,11,4,0,0.00
2013-4-5,43,38,32,30,24,20,72,60,49,30.14,29.87,24,8,0,0.00
2013-4-6,45,37,26,23,18,15,72,50,32,30.34,30.07,11,4,0,0.00
2013-4-7,72,54,44,46,33,19,69,46,32,30.07,29.71,27,13,0,0.00
2013-4-8,59,49,41,45,37,34,77,66,48,30.12,29.76,11,4,0,0.01
2013-4-9,61,52,45,50,44,40,94,75,56,30.10,29.74,25,6,0,0.47
2013-4-10,47,42,40,46,37,-100,95,92,92,30.06,29.87,13,-27,8,0.30
2013-4-11,40,36,33,38,32,26,96,86,66,30.16,29.96,18,5,4,0.19
2013-4-12,50,41,34,46,38,32,95,88,75,29.98,29.58,15,8,0,0.60
2013-4-13,47,43,40,38,35,32,82,74,61,29.93,29.77,16,4,0,0.00
2013-4-14,45,40,34,34,30,27,90,67,53,30.20,29.93,11,4,0,0.03
2013-4-15,70,52,34,48,39,28,81,63,44,30.20,30.03,24,9,0,0.00
2013-4-16,64,56,45,58,49,34,93,78,64,30.22,29.94,31,11,0,0.21
2013-4-17,53,46,37,38,34,30,84,63,43,30.34,30.22,13,3,0,0.00
2013-4-18,69,57,42,57,47,34,85,70,53,30.25,29.75,37,14,0,0.04
2013-4-19,72,59,43,60,50,32,85,74,62,29.76,29.36,35,14,0,0.08
2013-4-20,44,40,33,32,26,20,73,59,45,30.40,29.73,25,9,0,0.00
2013-4-21,44,36,29,27,22,16,76,57,37,30.67,30.41,12,4,0,0.00
2013-4-22,58,45,30,30,26,21,78,51,29,30.62,30.38,19,7,0,0.00
2013-4-23,60,50,39,38,33,26,66,52,40,30.38,29.98,20,9,0,0.00
2013-4-24,68,54,41,54,44,35,86,69,54,29.97,29.60,24,12,0,0.08
2013-4-25,57,46,37,39,32,28,85,62,33,30.30,29.98,14,6,0,0.04
2013-4-26,53,45,38,39,34,30,91,67,43,30.46,30.30,13,3,0,0.00
2013-4-27,70,52,34,41,36,31,92,60,29,30.45,30.23,20,2,0,0.00
2013-4-28,74,59,46,48,40,35,86,52,26,30.23,30.02,19,9,0,0.11
2013-4-29,60,55,50,52,49,45,92,79,69,30.07,30.00,23,10,0,0.08
2013-4-30,69,61,55,55,52,50,87,73,56,30.22,30.05,23,10,0,0.01
2013-5-1,76,65,56,51,42,34,76,47,22,30.36,30.22,22,7,0,0.00
2013-5-2,78,65,53,45,41,36,58,42,27,30.41,30.25,12,6,0,0.00
2013-5-3,76,65,52,47,45,41,75,50,34,30.30,30.20,14,5,0,0.00
2013-5-4,74,63,50,46,41,38,66,47,32,30.29,30.14,16,5,0,0.00
2013-5-5,78,63,47,48,44,41,86,53,30,30.20,30.06,12,3,0,0.00
2013-5-6,77,64,49,47,40,33,69,44,22,30.16,30.00,16,5,0,0.00
2013-5-7,80,67,54,55,52,47,84,60,36,30.10,29.98,9,4,0,0.00
2013-5-8,69,62,56,62,56,51,92,81,67,30.04,29.89,11,3,0,0.04
2013-5-9,71,62,53,59,55,51,94,81,59,29.93,29.86,12,4,0,0.00
2013-5-10,72,62,52,60,56,51,95,81,57,29.94,29.71,19,6,0,0.22
2013-5-11,60,57,49,58,51,44,94,82,65,29.75,29.64,12,5,0,0.26
2013-5-12,53,47,37,45,35,28,88,66,40,29.90,29.66,27,8,0,0.06
2013-5-13,51,43,38,34,31,29,80,64,45,30.11,29.89,19,8,0,0.00
2013-5-14,59,47,34,38,32,30,89,60,34,30.15,29.98,12,3,0,0.00
2013-5-15,81,59,44,58,44,31,84,60,40,29.98,29.50,30,9,0,0.06
2013-5-16,76,64,52,47,44,35,78,51,28,29.97,29.70,25,6,0,0.00
2013-5-17,66,55,41,44,40,34,91,61,32,30.21,29.98,10,2,0,0.00
2013-5-18,71,58,42,51,45,39,93,66,42,30.26,30.13,10,3,0,0.00
2013-5-19,74,65,57,61,56,51,83,75,63,30.15,29.99,26,10,0,0.00
2013-5-20,85,73,60,68,62,57,91,71,50,30.03,29.82,8,3,0,0.00
2013-5-21,84,72,64,71,65,60,94,80,59,29.88,29.71,20,3,6,0.28
2013-5-22,86,73,62,71,65,57,96,78,45,29.77,29.62,12,3,0,0.01
2013-5-23,78,68,47,66,60,45,92,78,57,29.82,29.67,11,5,0,0.27
2013-5-24,49,43,39,45,40,37,94,88,69,30.15,29.83,20,8,0,0.17
2013-5-25,57,50,42,40,37,34,81,63,44,30.18,30.10,28,10,0,0.00
2013-5-26,62,53,44,40,36,31,81,56,33,30.18,30.07,24,8,0,0.00
2013-5-27,71,58,46,42,37,32,71,49,26,30.25,30.12,14,4,0,0.00
2013-5-28,62,56,50,57,50,42,95,82,66,30.15,29.94,19,7,0,0.63
2013-5-29,83,71,58,70,63,57,96,78,52,29.99,29.89,16,4,0,0.62
2013-5-30,91,77,62,69,64,60,95,68,39,30.08,29.99,12,2,0,0.00
2013-5-31,93,79,65,71,65,62,92,67,37,30.05,29.88,11,2,0,0.00
2013-6-1,91,77,66,69,67,63,90,72,48,29.93,29.74,18,4,0,0.00
2013-6-2,79,72,58,68,63,52,92,76,49,29.83,29.66,18,6,0,0.17
2013-6-3,63,56,51,52,46,42,83,68,50,29.99,29.84,15,6,0,0.00
2013-6-4,66,57,48,46,42,34,85,60,31,30.14,29.99,18,5,0,0.00
2013-6-5,70,59,51,51,45,41,75,61,44,30.20,30.07,11,3,0,0.00
2013-6-6,58,56,54,56,52,45,96,87,63,30.08,29.84,10,4,0,2.03
2013-6-7,64,60,56,62,59,55,96,95,92,29.84,29.76,7,3,0,0.16
2013-6-8,64,60,56,61,57,55,97,92,82,30.05,29.76,10,3,0,0.03
2013-6-9,77,65,55,59,56,53,94,74,48,30.17,30.05,8,2,0,0.00
2013-6-10,68,63,59,64,60,56,96,89,77,30.11,29.70,12,6,0,0.27
2013-6-11,67,64,59,64,61,54,96,89,76,29.79,29.61,20,7,0,0.53
2013-6-12,76,65,54,59,55,52,93,73,48,29.91,29.77,11,3,0,0.00
2013-6-13,64,60,56,59,57,55,95,90,79,29.77,29.50,15,5,0,1.94
2013-6-14,73,63,54,59,56,52,96,79,58,29.93,29.74,14,6,0,0.00
2013-6-15,76,66,55,58,53,46,92,67,39,30.02,29.92,11,4,0,0.00
2013-6-16,74,66,60,67,60,54,93,82,71,29.92,29.67,11,4,0,0.26
2013-6-17,79,69,61,65,62,58,91,78,53,29.90,29.80,14,3,0,0.07
2013-6-18,68,62,55,58,52,46,93,74,49,30.00,29.86,14,4,0,0.01
2013-6-19,68,59,50,50,45,40,91,63,37,30.18,30.00,11,3,0,0.00
2013-6-20,78,61,44,55,47,41,94,63,35,30.24,30.18,10,2,0,0.00
2013-6-21,84,67,49,60,53,46,92,65,35,30.25,30.14,9,2,0,0.00
2013-6-22,89,74,61,74,66,57,92,77,45,30.15,29.97,8,2,0,0.02
2013-6-23,90,77,69,75,70,66,92,81,56,30.03,29.96,10,4,0,1.32
2013-6-24,91,80,67,72,68,64,94,69,47,29.99,29.90,11,3,0,0.00
2013-6-25,84,77,68,72,67,64,90,73,60,29.91,29.75,12,4,0,0.00
2013-6-26,86,76,70,72,68,65,87,75,57,29.79,29.74,10,3,0,0.00
2013-6-27,81,73,65,72,68,63,95,84,70,29.78,29.58,9,2,0,0.04
2013-6-28,68,65,62,66,63,60,96,93,85,29.57,29.47,9,3,0,0.56
2013-6-29,77,68,62,66,63,61,96,86,62,29.67,29.48,9,2,0,0.01
2013-6-30,79,71,64,67,64,62,95,80,62,29.90,29.66,11,3,0,0.00
2013-7-1,68,66,62,65,63,61,95,91,84,30.00,29.88,9,4,0,0.23
2013-7-2,82,68,61,73,65,60,96,90,74,30.08,29.99,9,2,0,0.06
2013-7-3,87,74,65,75,69,64,97,86,61,30.12,30.06,14,3,0,1.43
2013-7-4,87,76,69,75,71,68,96,85,59,30.14,30.06,7,2,0,0.07
2013-7-5,87,76,69,76,72,68,96,86,64,30.11,30.01,10,2,0,0.24
2013-7-6,90,76,70,72,69,66,94,79,50,30.11,29.99,7,1,0,0.00
2013-7-7,86,78,70,74,70,66,95,78,59,30.02,29.89,11,4,0,0.13
2013-7-8,84,74,68,74,69,65,95,85,68,30.02,29.94,15,2,0,0.91
2013-7-9,85,75,68,73,70,67,96,87,62,30.01,29.88,8,2,0,0.13
2013-7-10,89,78,72,75,71,64,93,79,61,29.88,29.68,14,5,0,0.10
2013-7-11,78,71,64,65,62,58,91,73,57,29.99,29.77,12,5,0,0.00
2013-7-12,77,68,61,66,62,60,95,81,61,30.15,29.99,12,2,0,0.00
2013-7-13,79,72,63,71,66,61,95,83,73,30.22,30.13,9,2,0,0.00
2013-7-14,92,79,67,75,70,65,96,76,52,30.28,30.20,9,2,0,0.00
2013-7-15,90,80,72,75,71,66,92,76,51,30.26,30.19,10,2,0,0.00
2013-7-16,92,80,70,71,68,65,86,69,49,30.25,30.16,9,3,0,0.00
2013-7-17,96,82,69,80,73,66,93,77,52,30.20,30.02,11,2,0,0.14
2013-7-18,91,80,74,78,75,71,92,83,61,30.05,29.90,8,2,0,0.37
2013-7-19,94,83,72,77,73,66,90,72,52,29.91,29.68,24,4,0,0.02
2013-7-20,78,72,68,70,68,65,95,86,70,29.85,29.68,16,3,0,0.43
2013-7-21,76,69,63,66,61,58,94,78,56,29.99,29.85,9,2,0,0.00
2013-7-22,81,70,60,68,63,58,94,80,59,29.98,29.76,8,2,0,0.01
2013-7-23,86,74,67,71,67,59,96,81,52,29.75,29.57,19,3,0,0.11
2013-7-24,69,63,54,59,54,49,88,73,57,30.02,29.65,15,6,0,0.02
2013-7-25,73,62,50,57,53,48,95,75,53,30.11,30.03,11,2,0,0.01
2013-7-26,77,66,53,60,56,51,93,74,50,30.10,30.00,11,2,0,0.00
2013-7-27,81,68,58,70,63,55,94,84,63,30.00,29.83,12,4,0,0.00
2013-7-28,75,68,61,68,64,59,95,86,69,29.96,29.80,12,4,0,0.00
2013-7-29,73,64,57,60,58,56,95,81,56,30.11,29.96,8,2,0,0.00
2013-7-30,76,66,58,62,59,55,91,77,58,30.18,30.10,10,3,0,0.00
2013-7-31,80,69,57,64,60,55,95,76,52,30.13,29.92,12,3,0,0.00
2013-8-1,77,70,66,69,64,61,94,81,64,29.91,29.75,15,5,14,0.00
2013-8-2,75,68,61,65,62,59,94,81,61,29.87,29.81,9,2,0,0.00
2013-8-3,77,68,62,63,59,54,95,75,47,29.89,29.79,13,4,0,0.00
2013-8-4,71,64,58,61,56,53,90,75,56,30.01,29.88,19,6,0,0.00
2013-8-5,76,64,54,59,54,51,92,73,46,30.09,30.01,8,3,0,0.00
2013-8-6,80,67,55,62,57,53,95,74,46,30.04,29.98,11,4,0,0.00
2013-8-7,77,71,64,68,64,60,87,79,70,29.99,29.87,20,10,0,0.00
2013-8-8,87,74,67,72,68,65,95,84,61,29.94,29.88,11,3,0,0.00
2013-8-9,76,70,64,70,68,61,96,92,78,29.89,29.82,10,2,0,0.01
2013-8-10,72,66,57,61,57,49,91,73,48,30.07,29.89,14,5,0,0.00
2013-8-11,76,64,52,61,56,51,95,76,48,30.11,30.02,8,2,0,0.00
2013-8-12,80,69,60,67,62,58,93,78,52,30.03,29.83,5,1,0,0.00
2013-8-13,73,67,60,67,61,50,95,82,62,29.83,29.70,22,5,0,0.00
2013-8-14,68,60,55,57,52,49,93,74,52,30.04,29.80,18,7,0,0.00
2013-8-15,76,63,52,58,52,49,89,71,45,30.12,30.04,12,3,0,0.00
2013-8-16,79,66,54,60,55,51,92,70,42,30.19,30.09,10,2,0,0.00
2013-8-17,81,67,53,63,58,51,95,75,47,30.28,30.19,6,1,0,0.00
2013-8-18,79,68,59,65,61,57,94,79,55,30.23,30.08,8,2,0,0.00
2013-8-19,84,72,62,66,62,59,92,74,43,30.09,29.99,8,2,0,0.00
2013-8-20,86,72,60,66,62,57,92,72,44,30.10,30.02,11,2,0,0.00
2013-8-21,87,74,60,68,64,58,94,73,48,30.13,29.99,9,2,0,0.00
2013-8-22,87,73,63,72,67,61,94,83,56,30.00,29.83,23,2,0,0.00
2013-8-23,72,66,57,63,58,54,94,78,57,30.18,29.94,12,3,0,0.00
2013-8-24,76,64,54,60,55,51,94,73,44,30.34,30.19,7,2,0,0.00
2013-8-25,84,68,52,65,58,51,95,72,40,30.33,30.11,10,2,0,0.00
2013-8-26,77,70,66,72,66,61,95,87,72,30.11,29.89,11,2,0,0.00
2013-8-27,84,73,68,73,70,67,97,88,67,29.91,29.84,9,2,0,0.10
2013-8-28,84,74,67,74,69,66,96,85,69,29.91,29.82,11,2,0,0.07
2013-8-29,83,73,66,72,68,63,96,85,64,30.00,29.91,10,3,0,0.00
2013-8-30,88,74,62,72,66,61,96,79,49,29.98,29.74,7,2,0,0.02
2013-8-31,82,74,70,74,70,67,94,87,73,29.82,29.69,11,3,0,0.04
2013-9-1,83,74,67,72,69,66,96,85,63,29.83,29.71,8,2,0,0.01
2013-9-2,85,73,67,75,68,61,95,86,66,29.76,29.61,15,4,0,0.00
2013-9-3,68,64,61,60,58,56,87,80,68,29.91,29.75,12,4,0,0.00
2013-9-4,80,68,55,62,56,53,92,69,41,29.96,29.91,13,4,0,0.00
2013-9-5,67,61,51,62,50,42,87,68,46,30.19,29.93,19,5,0,0.00
2013-9-6,72,58,46,52,47,43,88,68,41,30.26,30.08,8,2,0,0.00
2013-9-7,66,59,50,62,55,48,94,87,76,30.08,29.85,8,1,0,0.00
2013-9-8,65,61,49,63,52,43,96,75,46,30.10,29.82,19,4,0,0.00
2013-9-9,74,60,46,60,52,44,94,75,54,30.15,29.96,16,5,0,0.00
2013-9-10,92,68,65,78,50,-100,90,68,59,30.01,29.89,16,-111,0,0.00
2013-9-11,95,82,72,77,72,66,92,75,50,30.00,29.86,20,4,0,0.00
2013-9-12,77,70,62,70,66,60,93,87,75,29.88,29.68,10,2,0,0.00
2013-9-13,62,56,52,60,53,49,93,90,85,29.98,29.69,18,6,0,0.00
2013-9-14,62,46,46,49,27,-100,91,68,56,30.12,29.97,14,-133,0,0.00
2013-9-15,70,56,43,55,49,41,95,78,52,30.16,30.03,13,2,0,0.00
2013-9-16,55,52,46,53,49,44,94,90,75,30.37,30.05,12,3,0,0.00
2013-9-17,65,51,38,48,42,37,95,76,43,30.49,30.30,6,1,0,0.00
2013-9-18,73,58,45,54,47,43,94,72,38,30.30,30.09,9,3,0,0.00
2013-9-19,77,62,48,58,53,45,93,74,45,30.11,30.00,8,2,0,0.00
2013-9-20,80,67,54,64,58,52,95,76,53,30.00,29.78,18,6,0,0.00
2013-9-21,69,64,56,63,60,54,95,86,73,29.78,29.59,19,8,0,0.00
2013-9-22,55,52,50,53,46,42,93,80,62,30.00,29.69,19,6,0,0.00
2013-9-23,56,51,43,46,43,40,91,75,60,30.13,29.99,14,5,0,0.00
2013-9-24,63,52,42,49,44,40,93,76,49,30.12,30.00,13,3,11,0.00
2013-9-25,70,54,42,54,46,40,92,76,48,30.00,29.94,9,2,0,0.00
2013-9-26,70,55,43,56,49,41,95,80,56,30.13,29.99,11,2,0,0.00
2013-9-27,71,57,46,57,51,44,95,83,59,30.25,30.13,9,2,0,0.00
2013-9-28,71,58,48,57,52,47,96,81,58,30.30,30.18,12,4,0,0.00
2013-9-29,73,61,51,55,52,49,94,74,51,30.18,29.99,19,6,0,0.00
2013-9-30,78,63,52,60,55,50,91,78,53,30.01,29.92,10,2,0,0.00
2013-10-1,77,66,58,62,59,55,94,79,52,30.00,29.89,12,2,0,0.00
2013-10-2,77,65,55,64,58,53,94,79,50,30.05,29.89,12,3,0,0.00
2013-10-3,75,62,50,58,52,46,93,74,36,30.12,30.01,5,1,0,0.00
2013-10-4,66,46,58,64,21,-100,95,71,91,30.04,29.97,6,-241,0,0.00
2013-10-5,64,53,60,60,37,-100,94,79,86,30.08,30.02,9,-134,0,0.00
2013-10-6,80,68,60,71,64,58,97,88,70,30.02,29.75,23,6,0,0.00
2013-10-7,72,62,53,66,56,45,93,81,59,30.00,29.60,19,7,0,0.00
2013-10-8,64,53,45,50,46,43,93,78,49,30.35,30.00,9,3,0,0.00
2013-10-9,66,52,40,51,44,39,96,78,40,30.42,30.27,14,2,0,0.00
2013-10-10,64,52,44,50,46,42,95,83,55,30.28,30.15,8,2,0,0.00
2013-10-11,70,49,45,54,34,-100,96,73,48,30.15,30.09,7,-94,0,0.00
2013-10-12,74,57,41,53,46,37,96,72,28,30.20,30.11,11,2,0,0.00
2013-10-13,69,62,55,58,54,47,92,75,60,30.28,30.20,14,6,0,0.00
2013-10-14,60,57,50,57,54,48,95,91,78,30.31,30.24,12,2,0,0.00
2013-10-15,67,56,47,57,52,45,96,86,68,30.27,29.97,13,3,0,0.00
2013-10-16,62,54,57,57,39,-100,92,74,68,29.97,29.76,18,-88,0,0.02
2013-10-17,66,58,48,54,50,46,94,78,57,29.87,29.64,8,2,0,0.02
2013-10-18,59,54,49,52,45,40,94,75,51,29.90,29.68,20,4,0,0.02
2013-10-19,62,50,46,50,32,-100,87,65,51,29.90,29.62,19,-89,0,0.01
2013-10-20,55,44,43,44,29,-100,86,70,58,29.98,29.73,16,-80,0,0.03
2013-10-21,66,50,46,45,26,-100,85,53,38,29.99,29.77,15,-108,0,0.02
2013-10-22,57,40,39,49,14,-100,92,58,47,29.84,29.72,19,-175,0,0.00
2013-10-23,47,41,37,39,36,32,92,82,66,29.81,29.67,11,2,0,0.00
2013-10-24,50,40,34,36,33,29,91,77,47,29.99,29.77,14,5,0,0.00
2013-10-25,50,42,37,40,37,35,93,83,63,30.17,29.99,16,4,0,0.00
2013-10-26,44,14,41,37,-55,-100,82,24,54,30.13,29.79,7,-665,0,0.00
2013-10-27,49,38,40,37,15,-100,85,60,53,30.06,29.80,15,-133,0,0.00
2013-10-28,49,36,30,38,13,-100,86,58,51,30.39,30.02,18,-145,0,0.00
2013-10-29,47,36,25,32,26,-100,92,73,48,30.48,30.31,8,-10,0,0.11
2013-10-30,56,40,38,42,24,-100,93,69,56,30.31,30.11,7,-103,0,0.00
2013-10-31,61,54,40,58,51,37,94,89,79,30.10,29.43,21,11,19,0.00
2013-11-1,65,59,50,59,50,42,90,72,50,29.66,29.19,30,10,0,0.33
2013-11-2,50,33,39,47,4,-100,93,65,83,29.96,29.60,12,-268,0,0.07
2013-11-3,39,24,31,36,-12,-100,91,52,58,30.54,29.96,16,-306,0,0.00
2013-11-4,42,35,24,30,22,18,92,64,39,30.67,30.49,11,3,0,0.41
2013-11-5,54,46,38,38,30,22,66,54,46,30.50,30.34,21,9,12,0.16
2013-11-6,60,45,48,52,18,-100,78,56,60,30.34,29.80,31,-179,0,0.02
2013-11-7,59,47,40,54,41,31,93,81,60,29.95,29.76,15,7,0,0.00
2013-11-13,38,35,34,25,18,-100,66,57,47,30.38,30.10,13,-15,0,0.04
2013-11-14,53,34,32,27,-3,-100,54,34,27,30.12,30.02,11,-185,0,0.31
2013-11-15,52,45,36,30,24,19,54,44,32,30.12,30.05,11,4,0,0.26
2013-11-16,58,42,43,41,11,-100,70,45,44,30.24,30.06,16,-175,0,0.00
2013-11-17,59,18,50,54,-50,-100,86,27,70,30.06,29.37,24,-647,0,0.00
2013-11-18,59,29,38,55,-16,-100,90,41,51,29.86,29.36,23,-372,0,0.25
2013-11-19,38,31,31,28,9,-100,72,59,63,30.44,29.86,22,-128,0,0.00
2013-11-20,37,29,25,23,10,-100,79,58,47,30.61,30.44,8,-80,0,0.00
2013-11-21,44,38,29,37,26,17,85,61,47,30.51,30.28,21,8,0,0.00
2013-11-22,41,12,37,39,-60,-100,92,26,77,30.27,29.96,19,-702,0,0.12
2013-11-23,37,19,20,27,-21,-100,88,47,55,30.16,29.97,33,-335,0,0.00
2013-11-24,25,19,17,18,6,-100,90,73,61,30.40,30.13,23,-74,0,0.00
2013-11-25,35,27,20,20,10,-100,83,59,40,30.41,30.13,15,-46,0,0.00
2013-11-26,34,8,33,26,-71,-100,71,15,52,30.17,29.81,7,-767,0,0.00
2013-11-27,-200,0,200,-100,-100,-100,0,0,100,29.83,29.55,0,-999,0,0.00
2013-11-28,29,17,20,20,-21,-100,88,49,61,30.44,29.84,13,-324,0,0.05
2013-11-29,30,21,13,23,9,-100,91,74,59,30.76,30.44,10,-61,0,0.01
2013-11-30,33,22,10,22,8,-100,91,69,60,30.76,30.24,21,-66,0,0.00
2013-12-1,32,9,31,25,-66,-100,74,20,68,30.24,29.98,13,-723,0,0.00
2013-12-2,40,24,35,35,-15,-100,94,55,81,29.98,29.85,5,-363,0,0.07
2013-12-3,42,31,28,33,14,-100,96,71,61,30.02,29.89,5,-114,0,0.00
2013-12-4,47,34,29,40,20,-100,93,76,77,30.05,29.95,10,-113,0,0.00
2013-12-5,50,11,43,46,-66,-100,88,20,85,29.98,29.75,22,-763,0,0.01
2013-12-6,36,22,31,31,-18,-100,88,49,72,30.24,29.98,10,-359,0,0.09
2013-12-7,32,26,26,27,6,-100,86,61,55,30.55,30.22,15,-108,0,0.00
2013-12-8,29,23,21,24,0,-100,91,57,55,30.59,30.26,12,-142,0,0.00
2013-12-9,30,6,26,26,-74,-100,91,18,85,30.25,29.85,18,-786,0,0.00
2013-12-10,26,15,21,21,-30,-100,89,42,58,30.06,29.92,16,-396,0,0.00
2013-12-11,26,20,17,20,2,-100,84,63,60,30.26,30.07,16,-101,0,0.00
2013-12-12,21,15,14,13,-10,-100,87,59,60,30.33,30.05,15,-176,0,0.00
2013-12-13,25,17,12,20,1,-100,89,71,64,30.42,30.02,18,-109,0,0.00
2013-12-14,24,12,8,22,-4,-100,93,74,64,30.49,29.79,19,-120,0,0.00
2013-12-15,25,18,16,23,0,-100,93,75,79,29.83,29.62,22,-162,0,0.00
2013-12-16,22,14,0,17,-2,-100,87,73,74,30.21,29.84,22,-112,0,0.00
2013-12-17,28,16,-4,25,0,-100,92,77,84,30.18,29.92,15,-123,0,0.00
2013-12-18,32,24,24,24,1,-100,93,63,64,30.07,29.93,10,-176,0,0.12
2013-12-19,44,32,28,31,12,-100,84,61,56,30.05,29.91,15,-115,0,0.14
2013-12-20,45,35,35,43,17,-100,92,74,72,30.01,29.77,11,-144,0,0.05
2013-12-21,52,32,32,49,11,-100,95,74,90,29.88,29.73,13,-196,0,0.47
2013-12-22,44,29,32,43,7,-100,96,74,86,29.97,29.58,14,-206,0,0.33
2013-12-23,42,27,29,39,0,-100,90,65,67,30.25,29.95,13,-236,0,0.01
2013-12-24,29,17,13,26,-2,-100,91,73,78,30.49,30.21,20,-163,0,0.00
2013-12-25,25,15,7,15,-1,-100,88,69,63,30.56,30.26,14,-100,0,0.00
2013-12-26,34,25,25,28,4,-100,89,63,65,30.27,30.06,14,-129,0,0.00
2013-12-27,33,25,23,28,7,-100,88,68,66,30.29,30.11,13,-122,0,0.00
2013-12-28,45,32,30,35,13,-100,91,68,67,30.10,29.95,12,-132,0,0.02
2013-12-29,45,33,30,38,15,-100,95,73,62,29.94,29.63,13,-135,0,0.17
2013-12-30,33,16,14,29,-6,-100,88,66,72,30.23,29.73,20,-178,0,0.00
2013-12-31,26,17,16,19,-2,-100,83,62,56,30.24,29.97,19,-108,0,0.00
2014-1-1,22,16,13,14,-1,-100,87,64,59,30.41,30.24,13,-99,0,0.00
2014-1-2,14,9,6,12,-5,-100,89,78,86,30.32,29.99,19,-108,0,0.00